Louisville, KY

1:09 PM EDT on July 28, 2017 (GMT -0400)
Louisville International-Standiford

Weather History for KSDF - May, 2013

Change the Weather History Date:

Friday, May 24, 2013

  Actual Average Record
Temperature  
Mean Temperature 61 °F 69 °F  
Max Temperature 70 °F 79 °F 92 °F (1921)
Min Temperature 51 °F 60 °F 40 °F (1925)
Degree Days  
Heating Degree Days 4 1  
Month to date heating degree days 54 61  
Since 1 July heating degree days 4110 4086  
Cooling Degree Days 0 6  
Month to date cooling degree days 113 85  
Year to date cooling degree days 161 128  
Growing Degree Days 10 (Base 50)    
Moisture  
Dew Point 44 °F    
Average Humidity 56    
Maximum Humidity 83    
Minimum Humidity 28    
Precipitation  
Precipitation 0.00 in 0.16 in 1.66 in (1997)
Month to date precipitation 3.68 4.14  
Year to date precipitation 18.70 18.74  
Snow  
Snow 0.00 in 0.00 in - ()
Month to date snowfall 0.0 0.0  
Since 1 July snowfall 9.8 12.5  
Snow Depth 0.00 in    
Sea Level Pressure  
Sea Level Pressure 30.26 in    
Wind  
Wind Speed 10 mph (North)    
Max Wind Speed 18 mph    
Max Gust Speed 24 mph    
Visibility 10 miles    
Events      
T = Trace of Precipitation, MM = Missing Value Source: NWS Daily Summary

Daily Weather History Graph

Daily Weather History Graph

Search for Another Location

Airport or City:

Trip Planner

Search our weather history database for the weather conditions in past years. The results will help you decide how hot, cold, wet, or windy it might be!

Date:

Astronomy

May. 24, 2013 Rise Set
Actual Time 6:25 AM EDT 8:54 PM EDT
Civil Twilight 5:55 AM EDT 9:25 PM EDT
Nautical Twilight 5:17 AM EDT 10:02 PM EDT
Astronomical Twilight 4:35 AM EDT 10:44 PM EDT
Moon 8:36 PM EDT (5/24) 5:56 AM EDT (5/24)
Length of Visible Light 15h 30m
Length of Day
14h 29m
Full, 100% of the Moon is Illuminated
May 24
Full
May 25
Full
May 31
Last Quarter
Jun 8
New
Jun 16
First Quarter

Hourly Weather History & Observations

Time (EDT) Temp. Dew Point Humidity Pressure Visibility Wind Dir Wind Speed Gust Speed Precip Events Conditions
12:56 AM 55.0 °F 48.0 °F 77% 30.12 in 10.0 mi North 17.3 mph 24.2 mph N/A   Overcast
1:56 AM 55.0 °F 48.0 °F 77% 30.14 in 10.0 mi NNW 13.8 mph 18.4 mph N/A   Overcast
2:35 AM 53.6 °F 46.4 °F 77% 30.16 in 10.0 mi North 15.0 mph 23.0 mph N/A   Mostly Cloudy
2:56 AM 54.0 °F 46.9 °F 77% 30.16 in 10.0 mi North 15.0 mph - N/A   Mostly Cloudy
3:14 AM 53.6 °F 46.4 °F 77% 30.17 in 10.0 mi North 13.8 mph - N/A   Scattered Clouds
3:38 AM 53.6 °F 46.4 °F 77% 30.18 in 10.0 mi North 11.5 mph 18.4 mph N/A   Overcast
3:56 AM 54.0 °F 46.9 °F 77% 30.18 in 10.0 mi North 16.1 mph - N/A   Overcast
4:19 AM 53.6 °F 46.4 °F 77% 30.18 in 10.0 mi North 13.8 mph - N/A   Mostly Cloudy
4:56 AM 53.1 °F 46.9 °F 80% 30.19 in 10.0 mi North 11.5 mph - N/A   Mostly Cloudy
5:56 AM 51.1 °F 46.0 °F 83% 30.21 in 10.0 mi North 11.5 mph - N/A   Partly Cloudy
6:41 AM 51.8 °F 46.4 °F 82% 30.23 in 10.0 mi NNW 8.1 mph - N/A   Mostly Cloudy
6:56 AM 51.1 °F 46.0 °F 83% 30.23 in 10.0 mi North 10.4 mph - N/A   Partly Cloudy
7:56 AM 53.1 °F 46.9 °F 80% 30.25 in 10.0 mi North 9.2 mph - N/A   Scattered Clouds
8:56 AM 55.0 °F 46.9 °F 74% 30.29 in 10.0 mi North 10.4 mph - N/A   Scattered Clouds
9:34 AM 55.4 °F 46.4 °F 72% 30.31 in 10.0 mi NNE 11.5 mph - N/A   Mostly Cloudy
9:56 AM 54.0 °F 46.0 °F 75% 30.32 in 10.0 mi North 8.1 mph - N/A   Overcast
10:56 AM 57.0 °F 46.0 °F 67% 30.33 in 10.0 mi North 8.1 mph - N/A   Mostly Cloudy
11:47 AM 57.2 °F 44.6 °F 63% 30.34 in 10.0 mi North 4.6 mph - N/A   Scattered Clouds
11:56 AM 60.1 °F 46.9 °F 62% 30.34 in 10.0 mi NW 10.4 mph - N/A   Scattered Clouds
12:56 PM 63.0 °F 44.1 °F 50% 30.33 in 10.0 mi North 12.7 mph - N/A   Scattered Clouds
1:56 PM 64.9 °F 43.0 °F 45% 30.32 in 10.0 mi North 9.2 mph - N/A   Partly Cloudy
2:56 PM 66.9 °F 42.1 °F 40% 30.31 in 10.0 mi NNE 13.8 mph 18.4 mph N/A   Partly Cloudy
3:56 PM 68.0 °F 42.1 °F 39% 30.31 in 10.0 mi NNW 8.1 mph 16.1 mph N/A   Clear
4:56 PM 69.1 °F 39.9 °F 35% 30.30 in 10.0 mi NNE 9.2 mph - N/A   Clear
5:56 PM 69.1 °F 36.0 °F 30% 30.30 in 10.0 mi North 12.7 mph - N/A   Partly Cloudy
6:56 PM 68.0 °F 37.9 °F 33% 30.28 in 10.0 mi NNE 10.4 mph - N/A   Partly Cloudy
7:56 PM 66.0 °F 37.0 °F 34% 30.27 in 10.0 mi NNE 6.9 mph - N/A   Partly Cloudy
8:56 PM 64.0 °F 37.9 °F 38% 30.27 in 10.0 mi NNE 4.6 mph - N/A   Partly Cloudy
9:56 PM 62.1 °F 39.9 °F 44% 30.28 in 10.0 mi North 4.6 mph - N/A   Partly Cloudy
10:56 PM 62.1 °F 39.0 °F 43% 30.30 in 10.0 mi NNE 5.8 mph - N/A   Clear
11:56 PM 57.0 °F 42.1 °F 57% 30.31 in 10.0 mi SW 4.6 mph - N/A   Clear